Вернуться в каталог

GNOMES-4

АктивенПогодаSSO
NORAD 58462·PAYLOAD·🇺🇸 United States

Запущен Dec 1, 2023 с Vandenberg Space Force Base

Loading…

Ближайшие Пролёты (ближайшие 24 часа)

TLE

СвежийSource: Space-Track

Эпоха: Sep 14, 2026, 14:41 UTC

1 58462U 23185A   26257.61227518  .00002408  00000-0  19158-3 0  9999
2 58462  97.4735 311.4658 0011411  28.6783 331.5067 15.01269977152709

Отслеживайте GNOMES-4 в реальном времени с AllMySat

Download on the App Store